29.2.2020 Kaasujalka ralli

Tulokset  Keskeyttäneet (34)  Rangaistukset (0)  Tilastot Lähtöluettelo  Online


        SS2 >> Yleiskilpailun tulokset
Kaasujalka ralli
29.2.2020
SS 1, LUOKKATULOS
R-Rallicup
Yellow racing team
RTE-Motorsport
 
Luokka 1 , Historic gr2,4, a alle 1350 60-90 vm. 2wd , Lähti:6
SS1, 4.3km, nopein: 86.7km/h
SijNumOhjaajaTulosEro
1109Ari Liimatainen €2:58,6
2111Janne Solatie €3:08,29,6
3114Sami Kauppinen3:09,410,8
4113Vesa Båga3:31,833,2
550Timo Hytönen5:06,12:07,5
Tulos 1 ek:n jälkeen
SijNumOhjaajaTulosEro
1109Ari Liimatainen €2:58,6
2111Janne Solatie €3:08,2 9,6
3114Sami Kauppinen3:09,4 10,8
4113Vesa Båga3:31,8 33,2
550Timo Hytönen5:06,1 2:07,5
-110Jari Päivärinta €Tulos puuttuu

 
Luokka 3 , F, A, HR alle 1650 2wd , Lähti:11
SS1, 4.3km, nopein: 97km/h
SijNumOhjaajaTulosEro
198Mikko Kurkela €2:39,6
299Juho Nykänen €2:39,6
3100Marko Mansikkamäki €2:41,62,0
4104Oskari Jauhiainen €2:41,92,3
5101Tomi Saari €2:43,43,8
6108Raimo Kovanen2:43,43,8
7103Jani Kuivas €2:45,05,4
8102Sami Jokinen €2:46,06,4
9105Pasi Martikainen2:47,57,9
10107Santtu Pajunpää2:55,916,3
11106Janne Harju3:02,122,5
Tulos 1 ek:n jälkeen
SijNumOhjaajaTulosEro
198Mikko Kurkela €2:39,6
299Juho Nykänen €2:39,6
3100Marko Mansikkamäki €2:41,6 2,0
4104Oskari Jauhiainen €2:41,9 2,3
5101Tomi Saari €2:43,4 3,8
6108Raimo Kovanen2:43,4 3,8
7103Jani Kuivas €2:45,0 5,4
8102Sami Jokinen €2:46,0 6,4
9105Pasi Martikainen2:47,5 7,9
10107Santtu Pajunpää2:55,9 16,3
11106Janne Harju3:02,1 22,5

 
Luokka 4 , F, A, HR alle 2100 2wd , Lähti:16
SS1, 4.3km, nopein: 101.7km/h
SijNumOhjaajaTulosEro
183Miko Jalava €2:32,2
288Petteri Paavilainen2:42,410,2
395Olli Rämänen2:42,510,3
484Kyösti Kotamäki €2:43,411,2
597Lasse Lahikainen2:46,214,0
686Sami Sabell2:50,017,8
794Pasi Laitinen2:52,119,9
891Timo Siik2:52,520,3
996Henry Isakoff2:53,721,5
1089Teemu Rajasto2:54,522,3
1190Mirco Ilminen2:57,425,2
1285Jussi Kananoja €3:03,831,6
1392juha flyktman3:04,131,9
1487Mika Kylmälä3:04,332,1
Tulos 1 ek:n jälkeen
SijNumOhjaajaTulosEro
183Miko Jalava €2:32,2
288Petteri Paavilainen2:42,4 10,2
395Olli Rämänen2:42,5 10,3
484Kyösti Kotamäki €2:43,4 11,2
597Lasse Lahikainen2:46,2 14,0
686Sami Sabell2:50,0 17,8
794Pasi Laitinen2:52,1 19,9
891Timo Siik2:52,5 20,3
996Henry Isakoff2:53,7 21,5
1089Teemu Rajasto2:54,5 22,3
1190Mirco Ilminen2:57,4 25,2
1285Jussi Kananoja €3:03,8 31,6
1392juha flyktman3:04,1 31,9
1487Mika Kylmälä3:04,3 32,1
-82Esa Ketomäki €Tulos puuttuu
-93Joonas AhokasTulos puuttuu

 
Luokka 5 , F, A, HR yli 2100 2wd , Lähti:10
SS1, 4.3km, nopein: 95.4km/h
SijNumOhjaajaTulosEro
171Sami Ahonen €2:42,2
272Jani Rihu €2:48,66,4
378Hannu Hautakoski2:49,16,9
475Pasi Hirvikoski €2:50,88,6
574Sami Tikkanen €2:53,611,4
677Markus Minkkilä2:55,613,4
776Laurell Henry3:11,629,4
Tulos 1 ek:n jälkeen
SijNumOhjaajaTulosEro
171Sami Ahonen €2:42,2
272Jani Rihu €2:48,6 6,4
378Hannu Hautakoski2:49,1 6,9
475Pasi Hirvikoski €2:50,8 8,6
574Sami Tikkanen €2:53,6 11,4
677Markus Minkkilä2:55,6 13,4
776Laurell Henry3:11,6 29,4
-81Niko KonkolaTulos puuttuu


Keskeyttäneet: 73, Antti Rintamäki €, 1B, Tekninen syy
 
Luokka 6 , Senior 50 v. cc vapaa 2wd , Lähti:16
SS1, 4.3km, nopein: 96.6km/h
SijNumOhjaajaTulosEro
153Petteri Rantanen €2:40,3
254Pauli Sinkkonen €2:43,43,1
365Timo Nousiainen2:43,83,5
456Markku Tuoriniemi €2:44,23,9
555Timo Ahonen €2:45,04,7
658Pasi Kämäräinen €2:46,86,5
769Pekka Mustanoja2:52,111,8
864juha kaipainen2:55,415,1
957Jari Muhonen €2:56,015,7
1060Petri Heikkilä €2:59,118,8
1159Ilpo Saari €3:07,126,8
1270Rauno Jaakkola3:08,828,5
1366Ari Ijäs3:12,332,0
1467Jorma Isotalo3:13,433,1
1563Christer Sundholm3:16,235,9
Tulos 1 ek:n jälkeen
SijNumOhjaajaTulosEro
153Petteri Rantanen €2:40,3
254Pauli Sinkkonen €2:43,4 3,1
365Timo Nousiainen2:43,8 3,5
456Markku Tuoriniemi €2:44,2 3,9
555Timo Ahonen €2:45,0 4,7
658Pasi Kämäräinen €2:46,8 6,5
769Pekka Mustanoja2:52,1 11,8
864juha kaipainen2:55,4 15,1
957Jari Muhonen €2:56,0 15,7
1060Petri Heikkilä €2:59,1 18,8
1159Ilpo Saari €3:07,1 26,8
1270Rauno Jaakkola3:08,8 28,5
1366Ari Ijäs3:12,3 32,0
1467Jorma Isotalo3:13,4 33,1
1563Christer Sundholm3:16,2 35,9


Keskeyttäneet: 68, Tauno Rantala, 1B, Tekninen syy
 
Luokka 7 , V-1600 alle 1650 gr1, N ja V1600 2wd , Lähti:10
SS1, 4.3km, nopein: 91.2km/h
SijNumOhjaajaTulosEro
143Joonas Tonteri €2:49,8
246Ari Pentinmäki2:54,95,1
345Ilkka Manier €2:57,67,8
444Timo Karhinen €2:59,69,8
542Janne Rissanen €3:02,813,0
649Markku Hytönen3:08,118,3
751Markus Väätänen3:08,819,0
847Anssi Pihala3:09,119,3
952Petri Riihimäki3:11,321,5
1048Jan Andersin3:34,744,9
Tulos 1 ek:n jälkeen
SijNumOhjaajaTulosEro
143Joonas Tonteri €2:49,8
246Ari Pentinmäki2:54,9 5,1
345Ilkka Manier €2:57,6 7,8
444Timo Karhinen €2:59,6 9,8
542Janne Rissanen €3:02,8 13,0
649Markku Hytönen3:08,1 18,3
751Markus Väätänen3:08,8 19,0
847Anssi Pihala3:09,1 19,3
952Petri Riihimäki3:11,3 21,5
1048Jan Andersin3:34,7 44,9

 
Luokka 8 , V-2000 alle 2050 gr1, N, V2000 2wd , Lähti:5
SS1, 4.3km, nopein: 91.1km/h
SijNumOhjaajaTulosEro
137Kari Mutkala €2:50,0
238Mikko Viitanen €2:50,0
341Toni Ketomäki2:51,61,6
439Rami Härkönen €3:04,714,7
540Kristian Pannula €3:11,121,1
Tulos 1 ek:n jälkeen
SijNumOhjaajaTulosEro
137Kari Mutkala €2:50,0
238Mikko Viitanen €2:50,0
341Toni Ketomäki2:51,6 1,6
439Rami Härkönen €3:04,7 14,7
540Kristian Pannula €3:11,1 21,1

 
Luokka 9 , Nuoret V-1600 2wd , Lähti:6
SS1, 4.3km, nopein: 83.1km/h
SijNumOhjaajaTulosEro
1117Timo Koskinen €3:06,3
2115Tomi Tiilikainen €3:09,12,8
3119Ville Wikström3:13,37,0
4116Aatu Hirvikoski €3:18,612,3
5118Luka Manninen8:05,94:59,6
6120Jooa Iivari8:05,94:59,6
Tulos 1 ek:n jälkeen
SijNumOhjaajaTulosEro
1117Timo Koskinen €3:06,3
2115Tomi Tiilikainen €3:09,1 2,8
3119Ville Wikström3:13,3 7,0
4116Aatu Hirvikoski €3:18,6 12,3
5118Luka Manninen8:05,9 4:59,6
6120Jooa Iivari8:05,9 4:59,6

 
Luokka 11 , 4wd cc vapaa Kaikki ikäkaudet , Lähti:4
SS1, 4.3km, nopein: 99.5km/h
SijNumOhjaajaTulosEro
123Tatu Soisalo €2:35,6
225sami tuohinen2:38,52,9
327Timo Takala2:51,215,6
426Henri Alahuhta2:52,917,3
Tulos 1 ek:n jälkeen
SijNumOhjaajaTulosEro
123Tatu Soisalo €2:35,6
225sami tuohinen2:38,5 2,9
327Timo Takala2:51,2 15,6
426Henri Alahuhta2:52,9 17,3

 
Luokka 12 , 4 wd A, Fin-R cc vapaa Nuotti , Lähti:5
SS1, 4.3km, nopein: 102.9km/h
SijNumOhjaajaTulosEro
13Matti Latvala2:30,5
24Veli-Matti Saarelainen2:42,311,8
32Tommi Rimpeläinen2:43,412,9
45Mikko Suvinen2:44,614,1
51Aatu Tunturi2:51,821,3
Tulos 1 ek:n jälkeen
SijNumOhjaajaTulosEro
13Matti Latvala2:30,5
24Veli-Matti Saarelainen2:42,3 11,8
32Tommi Rimpeläinen2:43,4 12,9
45Mikko Suvinen2:44,6 14,1
51Aatu Tunturi2:51,8 21,3

 
Luokka 15 , F, A, HR yli 1650 2wd Nuotti , Lähti:16
SS1, 4.3km, nopein: 96.6km/h
SijNumOhjaajaTulosEro
16Max Karhapää €2:40,2
219Marko Kinnunen2:42,11,9
311Benjamin Korhola €2:48,28,0
421Tommi Hannuksela2:49,08,8
520Ville Jauhiainen2:51,511,3
610Sami Saari €2:52,111,9
718Tuomo Laitila2:52,212,0
817Jussi Soikkeli2:54,614,4
922Vesa Rissanen2:54,814,6
1012Roman Prokhorov €2:55,815,6
118Toni Piiroinen €2:58,218,0
127Markku Hakkarainen €3:07,327,1
1315Juha Niskanen3:08,828,6
1416Ari Halmela3:16,336,1
1513Kimmo Johansson €4:10,61:30,4
1614Eemil Mielityinen €11:05,58:25,3
Tulos 1 ek:n jälkeen
SijNumOhjaajaTulosEro
16Max Karhapää €2:40,2
219Marko Kinnunen2:42,1 1,9
311Benjamin Korhola €2:48,2 8,0
421Tommi Hannuksela2:49,0 8,8
520Ville Jauhiainen2:51,5 11,3
610Sami Saari €2:52,1 11,9
718Tuomo Laitila2:52,2 12,0
817Jussi Soikkeli2:54,6 14,4
922Vesa Rissanen2:54,8 14,6
1012Roman Prokhorov €2:55,8 15,6
118Toni Piiroinen €2:58,2 18,0
127Markku Hakkarainen €3:07,3 27,1
1315Juha Niskanen3:08,8 28,6
1416Ari Halmela3:16,3 36,1
1513Kimmo Johansson €4:10,6 1:30,4
1614Eemil Mielityinen €11:05,5 8:25,3

 
Luokka 17 , BMW orginal 2wd , Lähti:4
SS1, 4.3km, nopein: 91km/h
SijNumOhjaajaTulosEro
135Sami Hakonen €2:50,1
234Tero Karppi €2:50,90,8
336Kimmo Vilenius3:13,022,9
433Ville Pulkkinen €3:15,125,0
Tulos 1 ek:n jälkeen
SijNumOhjaajaTulosEro
135Sami Hakonen €2:50,1
234Tero Karppi €2:50,9 0,8
336Kimmo Vilenius3:13,0 22,9
433Ville Pulkkinen €3:15,1 25,0

 
Luokka 20 , Proto cc vapaa 2wd turbot , Lähti:5
SS1, 4.3km, nopein: 95.5km/h
SijNumOhjaajaTulosEro
128Jarno Puupponen €2:42,1
230Petri Katainen €2:49,57,4
332Tomi Mäkinen2:51,39,2
429Kari Herronen €2:55,613,5
531Aki Suni3:13,131,0
Tulos 1 ek:n jälkeen
SijNumOhjaajaTulosEro
128Jarno Puupponen €2:42,1
230Petri Katainen €2:49,5 7,4
332Tomi Mäkinen2:51,3 9,2
429Kari Herronen €2:55,6 13,5
531Aki Suni3:13,1 31,0